GFSFLT1_sfc_rhum_153.txt.gz
RH
57 64 63 69 70 65 65 64 68 70 72 68 68 71 71 70 71 70 74 75 77 82 83 84 83 86 94 98 95 97 96 95
61 64 69 70 69 64 68 68 69 71 72 74 73 76 74 74 70 70 74 77 77 81 83 86 85 83 88 92 95 96 97 96
60 66 72 76 69 68 68 70 70 72 70 72 74 75 74 72 71 69 71 74 74 74 79 85 84 89 83 88 94 93 94 97
64 64 76 80 69 75 69 73 73 72 72 71 73 72 72 73 72 72 70 72 74 74 74 82 86 88 89 84 93 93 94 97
66 72 77 76 76 76 74 73 76 69 73 76 80 78 80 75 74 71 70 70 73 75 71 77 85 87 88 86 88 92 89 92
75 79 79 79 73 75 80 78 75 74 74 75 76 78 77 76 73 74 73 72 74 75 76 73 79 85 88 85 86 89 90 87
73 78 76 76 75 81 84 80 76 73 73 71 74 75 77 78 77 80 78 76 76 77 76 76 78 82 87 87 81 88 88 91
82 84 83 78 80 84 80 78 79 74 72 71 74 77 74 78 79 79 82 80 81 81 82 86 84 83 82 85 84 87 87 88
83 84 85 85 83 86 87 84 80 76 72 73 74 74 74 76 77 79 82 86 84 84 86 86 86 85 85 87 85 84 90 97
81 81 83 87 89 87 91 88 81 76 78 76 77 74 74 77 80 84 86 85 82 84 86 89 88 90 89 87 87 85 90 93
80 81 83 87 87 88 90 88 85 81 80 80 76 73 73 78 82 84 86 88 88 89 87 88 90 91 91 88 87 91 93 92
80 80 83 87 87 89 89 86 84 81 80 80 78 78 75 79 82 84 85 87 89 88 86 87 89 91 89 93 92 91 91 84
77 78 84 85 86 86 86 85 84 79 78 77 74 74 79 82 83 82 85 87 88 91 92 86 87 90 91 96 94 88 87 87
76 82 92 91 88 88 85 83 83 77 77 76 76 75 82 83 82 82 83 85 87 91 89 92 88 90 90 87 93 87 86 85
74 86 93 92 91 89 84 80 79 77 78 78 81 76 82 83 80 82 84 84 88 89 91 86 88 90 85 87 90 90 85 83
74 89 93 93 92 90 85 83 77 78 80 82 85 79 78 81 80 81 81 84 86 87 92 88 86 92 86 94 92 94 92 86
72 80 90 90 90 84 82 83 80 80 84 84 81 79 73 81 80 80 81 84 85 86 90 91 96 86 92 94 97 95 94 90
72 80 83 83 85 80 84 81 78 80 86 84 77 80 82 82 80 79 82 86 86 88 93 95 94 92 96 94 98 95 95 94
70 76 78 78 81 81 81 77 80 83 76 81 78 83 85 84 83 84 84 85 88 89 95 96 95 88 93 97 96 96 97 93

GFSFLT1_sfc_rhum_156.txt.gz
RH
65 68 68 73 74 69 72 71 73 76 78 73 76 79 76 75 79 75 77 79 81 83 83 86 88 92 92 88 88 95 96 95
68 69 73 73 68 70 72 74 74 76 76 78 79 80 79 77 74 72 78 78 79 81 80 79 80 89 89 92 88 90 98 97
66 72 76 77 72 75 72 76 77 78 80 79 84 81 83 78 77 74 74 78 78 74 74 76 74 83 85 90 92 90 94 96
70 71 78 80 76 78 74 77 80 79 78 78 78 75 77 79 78 77 74 73 76 77 77 78 80 81 88 85 92 91 92 90
75 79 75 79 77 79 80 76 78 70 78 81 85 80 77 73 74 72 75 74 76 76 76 77 80 78 87 88 82 91 90 93
83 84 80 77 76 81 86 82 76 76 78 80 81 82 81 75 71 75 72 72 72 74 76 77 81 83 83 87 89 86 91 89
80 82 77 78 80 84 87 80 76 75 76 76 78 84 83 75 76 77 78 76 75 73 76 75 80 85 86 86 86 87 91 90
86 82 83 82 83 84 76 80 80 76 77 77 77 81 76 75 74 76 79 78 80 79 80 83 82 83 85 86 89 89 90 91
86 86 86 86 83 85 87 85 82 78 77 78 77 73 71 72 73 76 77 81 83 82 84 83 84 83 85 89 91 91 90 92
80 79 83 87 86 86 90 90 84 80 82 80 79 77 71 73 75 79 81 78 76 81 85 86 84 85 86 89 93 94 93 92
80 80 82 85 85 87 90 89 89 86 85 84 79 72 70 77 80 81 80 81 82 84 85 85 85 86 85 90 94 92 95 93
78 79 83 84 83 85 89 89 89 85 83 84 84 80 73 82 83 82 82 81 82 84 84 86 86 86 86 89 90 90 94 91
77 81 83 83 85 86 87 88 90 85 82 84 84 83 75 84 85 82 82 81 83 83 83 84 84 84 85 89 88 89 92 91
74 87 93 93 87 88 88 87 86 83 81 84 86 86 78 83 85 82 81 82 82 82 82 86 86 89 89 93 86 86 89 93
75 91 93 94 91 89 87 86 83 82 82 85 82 86 79 78 82 82 83 81 82 83 84 84 85 90 95 91 93 87 89 88
75 92 92 94 92 91 87 85 82 83 83 78 78 80 75 76 83 82 82 82 82 82 84 84 84 87 94 98 93 92 90 91
76 78 86 91 89 85 82 84 84 84 85 78 75 74 76 78 83 81 83 82 81 84 86 87 90 85 97 99 98 96 90 91
78 80 82 82 85 81 87 85 83 85 82 80 74 76 83 79 82 80 81 82 80 85 87 88 90 89 92 98 94 94 94 93
74 74 73 78 85 87 81 81 84 78 80 78 77 79 78 77 81 84 81 79 83 85 86 88 90 85 90 94 97 91 96 92

GFSFLT1_sfc_rhum_162.txt.gz
RH
34 32 32 29 38 39 41 40 49 51 44 40 36 36 38 40 42 45 59 55 58 58 50 54 54 52 54 57 66 59 57 51
34 35 33 31 38 37 40 40 45 41 36 38 37 38 40 40 42 50 55 57 59 60 52 56 58 60 68 69 68 71 60 54
36 34 34 36 37 39 37 38 41 39 35 39 42 41 39 40 41 48 52 56 58 54 62 62 66 66 70 70 70 71 69 58
36 34 36 35 37 41 37 38 39 41 47 35 36 34 34 36 43 43 48 54 57 59 63 65 68 67 69 74 70 74 82 71
33 32 34 38 40 40 39 41 39 39 46 42 49 40 40 43 43 44 47 52 55 59 65 68 70 69 72 69 64 77 81 82
35 32 32 34 41 42 42 40 40 43 47 49 45 47 43 41 43 51 51 50 53 56 63 66 67 67 70 72 74 78 79 86
37 34 34 34 42 42 43 42 39 43 46 48 52 55 54 49 49 48 46 47 49 55 60 66 69 71 75 74 76 78 75 81
39 34 31 35 39 42 40 41 40 42 47 48 51 53 52 51 51 47 53 50 51 56 64 68 68 72 74 74 74 77 76 78
38 36 36 37 41 43 45 44 42 42 47 50 49 51 45 45 50 51 49 51 53 60 64 68 70 74 75 75 75 73 80 85
40 40 41 40 41 46 51 48 42 44 49 50 50 51 53 53 57 55 51 54 51 59 67 70 70 72 74 76 77 75 79 84
42 43 46 40 40 41 50 49 46 47 50 51 50 53 55 57 60 61 60 56 59 63 67 68 70 72 72 72 74 73 77 82
44 47 47 43 41 42 47 49 48 50 52 54 58 60 60 60 64 64 60 60 59 64 66 69 72 70 69 72 72 71 73 76
43 48 51 48 46 44 44 50 52 53 52 56 60 61 63 62 64 66 63 61 61 64 66 70 71 67 68 71 73 71 73 76
47 74 88 66 57 52 48 47 50 52 52 56 60 65 66 64 65 68 63 61 62 63 66 72 73 72 68 67 68 71 72 73
53 88 100 98 72 60 54 52 52 53 53 55 62 65 66 66 68 67 65 62 65 64 66 68 72 70 69 67 72 75 72 70
54 86 100 100 99 80 59 57 54 54 54 57 62 61 61 63 68 66 63 66 62 62 64 66 67 69 64 77 78 79 77 77
52 59 72 93 77 64 56 59 59 56 58 60 57 59 60 67 66 62 62 61 59 62 67 66 72 64 76 75 79 83 76 76
53 62 73 68 63 55 56 54 55 55 62 57 58 63 68 67 59 56 61 64 62 67 68 66 68 68 72 74 76 76 75 75
64 69 76 55 50 50 52 51 55 57 57 54 62 70 67 64 59 56 61 63 67 67 65 65 68 61 71 73 82 76 76 72

GFSFLT1_sfc_rhum_168.txt.gz
RH
26 27 29 28 42 45 47 50 54 56 57 54 51 54 54 55 58 60 67 67 66 70 65 68 66 66 68 71 74 67 73 72
26 30 33 33 47 45 44 50 51 49 49 53 54 55 56 56 55 57 61 66 66 70 66 67 69 70 74 73 70 70 70 72
30 33 37 42 46 45 43 42 45 46 45 49 52 54 52 51 58 57 65 64 66 57 71 70 72 72 75 71 67 72 69 72
34 36 41 45 46 48 39 41 44 51 53 45 50 49 51 54 58 60 59 60 62 64 68 72 74 64 67 69 69 73 84 74
34 36 40 48 50 47 43 43 43 47 54 53 57 52 51 54 58 61 61 60 60 61 67 71 73 68 65 67 65 76 79 85
35 35 36 37 49 53 51 46 45 51 55 58 59 62 60 56 58 64 62 62 62 60 67 71 74 65 64 69 71 76 75 83
35 34 34 40 55 56 55 46 45 52 54 58 61 65 64 61 60 63 62 63 62 65 63 71 71 69 69 68 72 74 77 80
36 35 34 42 49 54 52 44 46 51 54 56 59 61 60 60 60 61 65 65 65 67 67 72 70 63 65 66 70 74 76 77
37 36 37 38 46 49 47 44 43 47 52 56 58 58 58 58 62 63 63 64 66 69 69 69 67 64 65 70 71 74 72 75
39 39 40 41 44 53 54 46 41 46 52 58 59 60 62 63 65 66 65 66 57 66 70 68 62 65 67 66 72 74 71 76
43 40 44 40 44 51 57 50 47 50 56 59 57 59 61 63 66 68 70 67 67 64 65 62 62 63 64 68 68 72 73 69
44 43 44 42 44 51 58 54 51 56 59 61 65 65 64 65 65 68 68 68 63 62 60 60 62 63 64 67 72 69 79 76
43 44 46 46 46 45 51 58 57 57 56 60 66 65 65 67 68 67 67 63 61 64 61 60 61 62 63 71 78 74 74 75
46 61 66 56 54 48 46 49 52 52 50 58 65 67 67 68 69 68 61 61 59 60 63 67 66 72 64 74 71 73 74 75
76 98 100 77 62 56 50 52 52 50 51 56 63 66 66 67 66 64 62 62 63 61 67 66 71 68 68 73 71 76 76 71
72 93 100 100 91 66 55 55 53 51 51 54 63 64 62 64 64 66 59 59 62 59 62 68 71 69 72 80 79 81 77 76
67 74 78 84 77 63 54 59 56 56 56 56 55 58 58 65 64 62 61 56 59 64 68 71 78 63 88 70 73 81 74 75
62 64 67 68 59 51 53 50 53 52 58 52 55 57 59 63 58 58 59 62 60 64 69 72 76 76 76 70 72 71 74 76
57 58 60 58 49 46 50 45 49 52 52 50 55 59 57 58 59 56 58 59 66 66 68 74 77 68 70 74 73 75 75 74